This demonstration page uses our WeatherBlox Daily Observations layout. Learn more.

Hourly Observations for October 1, 2015

Temp ( °F °C ) Dew Point ( °F °C ) Humidity (%) Winds ( mph kmh ) Pressure ( in mb ) Visibility ( mi km ) Precip ( " mm )
12:15 am 00:15 Cloudy 62 16.5 39 4.1 44 44 ESE 9 15 30.15 1021 10 16.0934 0 0
12:35 am 00:35 Cloudy 61 16 39 4.1 45 45 ESE 10 17 30.15 1021 10 16.0934 0 0
12:55 am 00:55 Cloudy 60 15.8 38 3.5 44 44 SE 12 19 30.15 1021 10 16.0934 0 0
1:15 am 01:15 Cloudy 60 15.5 38 3.4 45 45 SE 10 17 30.15 1021 10 16.0934 0 0
1:35 am 01:35 Cloudy 60 15.4 38 3.5 45 45 ESE 13 20 30.15 1021 10 16.0934 0 0
1:55 am 01:55 Cloudy 59 15.1 39 3.9 47 47 SE 10 17 30.12 1020 10 16.0934 0 0
2:15 am 02:15 Cloudy 59 15 39 4 48 48 SE 10 17 30.15 1021 10 16.0934 0 0
2:35 am 02:35 Cloudy 59 14.8 39 4 49 49 SE 10 17 30.15 1021 10 16.0934 0 0
2:55 am 02:55 Cloudy 58 14.5 39 4 50 50 SE 10 17 30.15 1021 10 16.0934 0 0
3:15 am 03:15 Cloudy 58 14.3 39 4 50 50 SE 10 17 30.18 1022 10 16.0934 0 0
3:35 am 03:35 Mostly Cloudy 57 13.7 39 4 52 52 SE 10 17 30.12 1020 10 16.0934 0 0
3:55 am 03:55 Clear 55 12.9 39 4.1 55 55 SE 10 17 30.15 1021 10 16.0934 0 0
4:15 am 04:15 Clear 55 12.5 39 4.1 57 57 SE 9 15 30.15 1021 10 16.0934 0 0
4:35 am 04:35 Clear 53 11.9 40 4.3 60 60 SE 9 15 30.15 1021 10 16.0934 0 0
4:55 am 04:55 Partly Cloudy 53 11.5 40 4.4 62 62 SE 7 11 30.15 1021 10 16.0934 0 0
5:15 am 05:15 Mostly Cloudy 53 11.7 40 4.5 62 62 SE 9 15 30.18 1022 10 16.0934 0 0
5:35 am 05:35 Partly Cloudy 52 11 40 4.5 65 65 ESE 7 11 30.18 1022 10 16.0934 0 0
5:55 am 05:55 Clear 50 10.1 40 4.6 69 69 ESE 7 11 30.21 1023 10 16.0934 0 0
6:15 am 06:15 Clear 49 9.5 40 4.7 72 72 ESE 6 9 30.21 1023 10 16.0934 0 0
6:35 am 06:35 Clear 48 9 41 4.9 76 76 ESE 7 11 30.21 1023 10 16.0934 0 0
6:55 am 06:55 Mostly Cloudy 51 10.4 42 5.3 71 71 ESE 7 11 30.21 1023 10 16.0934 0 0
7:15 am 07:15 Cloudy 53 11.6 41 5 64 64 ESE 9 15 30.18 1022 10 16.0934 0 0
7:55 am 07:55 Cloudy 54 12.1 41 5 62 62 SE 8 13 30.21 1023 10 16.0934 0 0
8:15 am 08:15 Cloudy 54 12.3 41 5 61 61 SE 8 13 30.21 1023 10 16.0934 0 0
8:35 am 08:35 Cloudy 55 12.5 41 5 61 61 SE 10 17 30.21 1023 10 16.0934 0 0
8:55 am 08:55 Cloudy 55 12.7 42 5.3 61 61 SE 9 15 30.21 1023 10 16.0934 0 0
9:15 am 09:15 Cloudy 55 13 42 5.3 60 60 SE 10 17 30.21 1023 10 16.0934 0 0
9:35 am 09:35 Cloudy 56 13.5 42 5.3 58 58 SE 12 19 30.21 1023 10 16.0934 0 0
9:55 am 09:55 Cloudy 57 13.7 41 5.2 57 57 SE 13 20 30.24 1024 10 16.0934 0 0
10:15 am 10:15 Cloudy 57 14.1 41 5.2 55 55 SE 10 17 30.24 1024 10 16.0934 0 0
10:35 am 10:35 Cloudy 59 15 42 5.4 53 53 SSE 14 22 30.21 1023 10 16.0934 0 0
10:55 am 10:55 Cloudy 60 15.5 41 5.2 51 51 SE 13 20 30.21 1023 10 16.0934 0 0
11:15 am 11:15 Cloudy 61 16 41 5.2 49 49 SE 14 22 30.21 1023 10 16.0934 0 0
11:35 am 11:35 Cloudy 62 16.6 41 5.2 47 47 SE 12 19 30.21 1023 10 16.0934 0 0
11:55 am 11:55 Cloudy 62 16.5 41 5.1 47 47 SE 13 20 30.21 1023 10 16.0934 0 0
12:15 pm 12:15 Cloudy 63 17.1 40 4.7 44 44 SSE 14 22 30.21 1023 10 16.0934 0 0
12:35 pm 12:35 Cloudy 64 17.5 40 4.7 43 43 SE 13 20 30.21 1023 10 16.0934 0 0
12:55 pm 12:55 Cloudy 63 17.4 40 4.2 42 42 SE 13 20 30.21 1023 10 16.0934 0 0
1:15 pm 13:15 Cloudy 64 17.9 39 4 40 40 SE 12 19 30.21 1023 10 16.0934 0 0
1:35 pm 13:35 Cloudy 65 18.1 40 4.4 41 41 ESE 13 20 30.18 1022 10 16.0934 0 0
1:55 pm 13:55 Cloudy 65 18.3 39 4.1 39 39 SE 10 17 30.18 1022 10 16.0934 0 0
2:15 pm 14:15 Cloudy 65 18.2 38 3.4 38 38 SE 10 17 30.21 1023 10 16.0934 0 0
2:35 pm 14:35 Cloudy 65 18.2 39 3.7 38 38 SE 9 15 30.21 1023 10 16.0934 0 0
2:55 pm 14:55 Cloudy 65 18.6 37 3 36 36 SE 9 15 30.15 1021 10 16.0934 0 0
3:15 pm 15:15 Mostly Cloudy 66 18.7 38 3.6 37 37 SE 9 15 30.15 1021 10 16.0934 0 0
3:35 pm 15:35 Partly Cloudy 67 19.5 39 3.7 35 35 E 14 22 30.15 1021 10 16.0934 0 0
3:55 pm 15:55 Mostly Cloudy 67 19.5 38 3.3 34 34 ESE 10 17 30.15 1021 10 16.0934 0 0
4:15 pm 16:15 Mostly Cloudy 67 19.2 39 4 37 37 E 9 15 30.15 1021 10 16.0934 0 0
4:35 pm 16:35 Partly Cloudy 67 19.6 40 4.5 37 37 ESE 13 20 30.12 1020 10 16.0934 0 0
4:55 pm 16:55 Sunny 68 19.8 39 4 35 35 SE 12 19 30.12 1020 10 16.0934 0 0
5:15 pm 17:15 Sunny 68 20.1 39 3.8 34 34 SE 15 24 30.12 1020 10 16.0934 0 0
5:35 pm 17:35 Sunny 67 19.2 38 3.2 35 35 SE 17 28 30.12 1020 10 16.0934 0 0
5:55 pm 17:55 Sunny 66 18.9 36 2.1 33 33 SE 14 22 30.12 1020 10 16.0934 0 0
6:15 pm 18:15 Sunny 65 18.3 35 1.6 33 33 SE 12 19 30.12 1020 10 16.0934 0 0
6:35 pm 18:35 Sunny 64 18 36 2 34 34 ESE 10 17 30.12 1020 10 16.0934 0 0
6:55 pm 18:55 Cloudy 68 20.2 41 5.1 37 37 SSE 6 9 30.06 1018 10 16.0934 0 0
7:15 pm 19:15 Sunny 63 17.2 37 2.9 39 39 ESE 8 13 30.18 1022 10 16.0934 0 0
7:35 pm 19:35 Clear 61 15.9 39 3.9 45 45 E 6 9 30.18 1022 10 16.0934 0 0
7:55 pm 19:55 Clear 60 15.5 40 4.4 48 48 ESE 7 11 30.18 1022 10 16.0934 0 0
8:15 pm 20:15 Partly Cloudy 60 15.5 40 4.3 47 47 ESE 5 7 30.18 1022 10 16.0934 0 0
8:35 pm 20:35 Clear 59 15.1 40 4.2 48 48 E 5 7 30.18 1022 10 16.0934 0 0
8:55 pm 20:55 Partly Cloudy 59 15.1 39 4 48 48 E 7 11 30.18 1022 10 16.0934 0 0
9:15 pm 21:15 Clear 59 14.8 41 5 52 52 ESE 3 6 30.21 1023 10 16.0934 0 0
9:35 pm 21:35 Partly Cloudy 58 14.5 41 5.2 54 54 ESE 8 13 30.21 1023 10 16.0934 0 0
9:55 pm 21:55 Partly Cloudy 58 14.6 41 5 53 53 E 10 17 30.21 1023 10 16.0934 0 0
10:15 pm 22:15 Partly Cloudy with Light Rain 58 14.6 41 5 53 53 E 12 19 30.21 1023 10 16.0934 0 0
10:35 pm 22:35 Clear 58 14.3 41 4.8 53 53 E 14 22 30.24 1024 10 16.0934 0 0
10:55 pm 22:55 Clear 57 14.1 40 4.7 53 53 ESE 13 20 30.24 1024 10 16.0934 0 0
11:15 pm 23:15 Clear 56 13.6 41 4.8 56 56 ESE 12 19 30.24 1024 10 16.0934 0 0
11:35 pm 23:35 Partly Cloudy 56 13.3 41 4.8 57 57 SE 9 15 30.27 1025 10 16.0934 0 0
11:55 pm 23:55 Clear 56 13.2 40 4.6 56 56 ESE 8 13 30.27 1025 10 16.0934 0 0

Powered by AerisWeather